EW7146 Weather Reports


Display with metric or nautical units.
time (UTC)temp
F
wind
direction
speed
MPH
gust
MPH
rain 1hr
in
rain 24hr
in
rain mn
in
humidity
%
barometer
mb
20260903143553 50 159 0.0 0.0 0.00 0.01 0.01 92 1020.4
20260903143054 50 159 0.0 0.0 0.00 0.01 0.01 92 1020.4
20260903142814 50 159 0.0 1.0 0.00 0.01 0.01 92 1020.3
20260903142053 50 159 0.0 1.0 0.00 0.01 0.01 92 1020.3
20260903141553 50 182 0.0 0.0 0.00 0.01 0.01 91 1020.3
20260903141054 51 182 0.0 0.0 0.00 0.01 0.01 91 1020.2
20260903140556 51 182 0.0 0.0 0.00 0.01 0.01 91 1020.2
20260903140317 51 182 0.0 0.0 0.00 0.01 0.01 92 1020.2
20260903135815 51 196 0.0 0.0 0.00 0.01 0.01 92 1020.1
20260903135052 51 196 0.0 0.0 0.00 0.01 0.01 92 1020.1
20260903134552 51 196 0.0 0.0 0.00 0.01 0.01 91 1019.9
20260903134544 51 196 0.0 0.0 0.00 0.01 0.01 91 1019.9
20260903133554 51 196 0.0 0.0 0.00 0.01 0.01 91 1019.9
20260903133051 51 196 0.0 0.0 0.00 0.01 0.01 91 1019.8
20260903132552 51 196 0.0 0.0 0.00 0.01 0.01 90 1019.8
20260903132051 51 196 0.0 0.0 0.00 0.01 0.01 90 1019.8
20260903131558 51 196 0.0 0.0 0.00 0.01 0.01 90 1019.8
20260903131053 51 196 0.0 0.0 0.00 0.01 0.01 90 1019.8
20260903130551 51 196 0.0 0.0 0.00 0.01 0.01 91 1019.8
20260903130051 51 196 0.0 0.0 0.00 0.01 0.01 91 1019.8
20260903125551 52 196 0.0 0.0 0.00 0.01 0.01 91 1019.6
20260903125312 51 196 0.0 0.0 0.00 0.01 0.01 91 1019.5
20260903124551 52 196 0.0 0.0 0.00 0.01 0.01 91 1019.5
20260903124052 52 196 0.0 0.0 0.00 0.01 0.01 91 1019.4
20260903123552 51 196 0.0 0.0 0.00 0.01 0.01 90 1019.5
20260903123544 51 196 0.0 0.0 0.00 0.01 0.01 90 1019.5
20260903122551 51 196 0.0 0.0 0.00 0.01 0.01 90 1019.4
20260903122050 51 196 0.0 0.0 0.00 0.01 0.01 91 1019.3
20260903121551 51 196 0.0 0.0 0.00 0.01 0.01 91 1019.4
20260903121050 51 196 0.0 0.0 0.00 0.01 0.01 91 1019.3
20260903120757 51 196 0.0 0.0 0.00 0.01 0.01 90 1019.4
20260903120644 51 196 0.0 0.0 0.00 0.01 0.01 91 1019.5
20260903120043 51 196 0.0 0.0 0.00 0.01 0.01 91 1019.5
20260903115050 51 197 0.0 0.0 0.00 0.01 0.01 91 1019.4
20260903114551 51 197 0.0 0.0 0.00 0.01 0.01 91 1019.3
20260903114049 51 196 0.0 0.0 0.00 0.01 0.01 91 1019.3
20260903113550 51 219 0.0 0.0 0.00 0.01 0.01 91 1019.3
20260903113050 52 227 0.0 0.0 0.00 0.01 0.01 91 1019.3
20260903112549 52 227 0.0 0.0 0.00 0.01 0.01 91 1019.3
20260903112049 52 227 0.0 0.0 0.00 0.01 0.01 90 1019.3
20260903111548 52 227 0.0 0.0 0.00 0.01 0.01 90 1019.2
20260903111050 52 227 0.0 0.0 0.00 0.01 0.01 89 1019.1
20260903110758 52 227 0.0 2.0 0.00 0.01 0.01 90 1019.1
20260903110648 53 227 0.0 2.0 0.00 0.01 0.01 89 1019.0
20260903105549 52 251 0.0 2.0 0.00 0.01 0.01 91 1019.0
20260903105048 52 245 0.0 2.0 0.00 0.01 0.01 91 1018.9
20260903104548 52 254 0.0 2.0 0.00 0.01 0.01 91 1018.7
20260903104048 52 166 0.0 0.0 0.00 0.01 0.01 91 1018.9
20260903103549 53 168 0.0 0.0 0.01 0.01 0.01 90 1019.0
20260903103049 53 168 0.0 1.0 0.01 0.01 0.01 90 1019.0
20260903102549 53 168 0.0 1.0 0.01 0.01 0.01 90 1019.2
20260903102047 53 166 0.0 0.0 0.01 0.01 0.01 90 1019.2
20260903101810 53 168 0.0 0.0 0.01 0.01 0.01 90 1019.1
20260903101047 53 168 0.0 0.0 0.01 0.01 0.01 90 1019.1
20260903100548 53 168 0.0 0.0 0.01 0.01 0.01 90 1019.0
20260903100314 53 168 0.0 0.0 0.01 0.01 0.01 89 1019.0
20260903095547 53 166 0.0 0.0 0.01 0.01 0.01 88 1019.1
20260903095048 54 165 0.0 0.0 0.01 0.01 0.01 87 1019.1
20260903094548 54 165 0.0 1.0 0.01 0.01 0.01 86 1019.0
20260903094049 54 165 0.0 2.0 0.01 0.01 0.01 82 1019.1
20260903094038 54 166 0.0 2.0 0.00 0.00 0.00 83 1019.1
20260903093048 54 185 0.0 1.0 0.00 0.00 0.00 83 1019.1
20260903092552 54 128 0.0 1.0 0.00 0.00 0.00 84 1019.0
20260903092047 54 144 0.0 1.0 0.00 0.00 0.00 82 1019.0
20260903091546 55 343 0.0 0.0 0.00 0.00 0.00 83 1019.0
20260903091048 55 343 0.0 0.0 0.00 0.00 0.00 82 1018.9
20260903090547 55 343 0.0 0.0 0.00 0.00 0.00 81 1018.9
20260903090045 56 343 0.0 0.0 0.00 0.00 0.00 78 1018.9
20260903085808 56 343 0.0 2.0 0.00 0.00 0.00 78 1018.8
20260903085046 56 343 0.0 3.0 0.00 0.00 0.00 77 1018.8
20260903084547 56 341 2.0 3.0 0.00 0.00 0.00 77 1018.7
20260903084045 56 252 0.0 0.0 0.00 0.00 0.00 76 1018.7
20260903083545 56 251 0.0 0.0 0.00 0.00 0.00 74 1018.6
20260903083529 56 251 0.0 0.0 0.00 0.00 0.00 74 1018.7
20260903082545 56 251 0.0 1.0 0.00 0.00 0.00 73 1018.6
20260903082048 56 251 0.0 1.0 0.00 0.00 0.00 74 1018.4
20260903081544 56 255 0.0 1.0 0.00 0.00 0.00 75 1018.4
20260903081048 56 255 1.0 1.0 0.00 0.00 0.00 74 1018.4
20260903080545 56 254 0.0 0.0 0.00 0.00 0.00 73 1018.4
20260903080046 56 254 0.0 0.0 0.00 0.00 0.00 73 1018.3
20260903075544 57 254 0.0 0.0 0.00 0.00 0.00 73 1018.4
20260903075044 57 254 0.0 0.0 0.00 0.00 0.00 73 1018.4
20260903074545 57 254 0.0 0.0 0.00 0.00 0.00 73 1018.4
20260903074043 57 254 0.0 0.0 0.00 0.00 0.00 73 1018.4
20260903073545 57 254 0.0 2.0 0.00 0.00 0.00 72 1018.4
20260903073044 57 254 0.0 2.0 0.00 0.00 0.00 72 1018.3
20260903072546 57 255 0.0 0.0 0.00 0.00 0.00 72 1018.4
20260903072044 57 255 0.0 0.0 0.00 0.00 0.00 72 1018.2
20260903071543 57 255 0.0 0.0 0.00 0.00 0.00 71 1018.0
20260903071310 57 255 0.0 0.0 0.00 0.00 0.00 70 1017.9
20260903070543 58 255 0.0 0.0 0.00 0.00 0.00 70 1017.9
20260903070044 58 255 0.0 0.0 0.00 0.00 0.00 69 1018.0
20260903065543 58 255 0.0 0.0 0.00 0.00 0.00 67 1018.0
20260903065045 58 255 0.0 0.0 0.00 0.00 0.00 67 1018.0
20260903064753 58 148 0.0 0.0 0.00 0.00 0.00 68 1018.0
20260903064637 58 148 0.0 0.0 0.00 0.00 0.00 67 1018.0
20260903063759 58 121 0.0 0.0 0.00 0.00 0.00 68 1017.9
20260903063042 59 121 0.0 0.0 0.00 0.00 0.00 67 1017.8
20260903062542 59 121 0.0 0.0 0.00 0.00 0.00 65 1017.8
20260903062042 59 121 0.0 0.0 0.00 0.00 0.00 62 1017.8
20260903061543 60 121 0.0 0.0 0.00 0.00 0.00 62 1017.7
20260903061042 60 121 0.0 2.0 0.00 0.00 0.00 61 1017.7
20260903060546 60 121 0.0 4.0 0.00 0.00 0.00 61 1017.6
20260903060041 60 172 2.0 4.0 0.00 0.00 0.00 61 1017.7
20260903055543 60 131 2.0 4.0 0.00 0.00 0.00 61 1017.7
20260903055041 60 144 3.0 6.0 0.00 0.00 0.00 60 1017.6
20260903054759 60 155 4.0 6.0 0.00 0.00 0.00 59 1017.5
20260903054041 60 121 2.0 4.0 0.00 0.00 0.00 60 1017.5
20260903053541 60 137 0.0 1.0 0.00 0.00 0.00 61 1017.5
20260903053041 60 137 0.0 0.0 0.00 0.00 0.00 60 1017.3
20260903052540 61 138 0.0 0.0 0.00 0.00 0.00 60 1017.3
20260903052307 61 138 0.0 0.0 0.00 0.00 0.00 58 1017.3
20260903051540 61 137 0.0 2.0 0.00 0.00 0.00 58 1017.2
20260903051042 61 138 1.0 2.0 0.00 0.00 0.00 57 1017.3
20260903050540 61 104 1.0 2.0 0.00 0.00 0.00 57 1017.3
20260903050041 61 207 0.0 2.0 0.00 0.00 0.00 57 1017.2
20260903045540 61 175 1.0 4.0 0.00 0.00 0.00 57 1017.2
20260903045039 61 113 2.0 4.0 0.00 0.00 0.00 57 1017.2
20260903044547 61 166 1.0 3.0 0.00 0.00 0.00 57 1017.1
20260903044304 62 140 2.0 4.0 0.00 0.00 0.00 57 1017.1
20260903043541 62 128 2.0 4.0 0.00 0.00 0.00 56 1017.0
20260903043040 62 118 2.0 4.0 0.00 0.00 0.00 56 1016.9
20260903042541 62 121 1.0 3.0 0.00 0.00 0.00 56 1017.0
20260903042044 62 145 1.0 3.0 0.00 0.00 0.00 55 1017.0
20260903041540 62 124 2.0 5.0 0.00 0.00 0.00 55 1017.0
20260903041040 62 90 2.0 5.0 0.00 0.00 0.00 54 1017.0
20260903040539 62 123 2.0 5.0 0.00 0.00 0.00 54 1017.0
20260903040043 62 123 2.0 6.0 0.00 0.00 0.00 53 1016.8
20260903035544 63 113 2.0 11.0 0.00 0.00 0.00 53 1016.7
20260903035041 63 114 4.0 11.0 0.00 0.00 0.00 52 1016.7
20260903034800 63 137 4.0 7.0 0.00 0.00 0.00 53 1016.4
20260903034040 63 124 3.0 7.0 0.00 0.00 0.00 53 1016.5
20260903033538 63 72 2.0 5.0 0.00 0.00 0.00 54 1016.4
20260903033306 63 109 0.0 5.0 0.00 0.00 0.00 54 1016.3
20260903032539 63 113 2.0 5.0 0.00 0.00 0.00 53 1016.3
20260903032038 63 86 1.0 7.0 0.00 0.00 0.00 53 1016.2
20260903031539 64 121 2.0 7.0 0.00 0.00 0.00 52 1016.2
20260903031038 64 78 3.0 7.0 0.00 0.00 0.00 51 1016.2
20260903030539 64 97 1.0 7.0 0.00 0.00 0.00 50 1016.1
20260903030038 64 104 2.0 7.0 0.00 0.00 0.00 50 1016.1
20260903025537 64 113 3.0 6.0 0.00 0.00 0.00 49 1016.1
20260903025037 65 118 2.0 9.0 0.00 0.00 0.00 48 1016.0
20260903024538 65 106 2.0 9.0 0.00 0.00 0.00 48 1016.1
20260903024037 65 161 3.0 9.0 0.00 0.00 0.00 47 1016.1
20260903023537 66 87 3.0 13.0 0.00 0.00 0.00 46 1016.1
20260903023038 66 110 3.0 19.0 0.00 0.00 0.00 45 1016.1
20260903022537 67 123 6.0 19.0 0.00 0.00 0.00 44 1016.0
20260903022039 67 140 9.0 18.0 0.00 0.00 0.00 43 1016.0
20260903021537 67 118 7.0 18.0 0.00 0.00 0.00 42 1015.9
20260903021036 67 89 5.0 16.0 0.00 0.00 0.00 42 1015.8
20260903020537 67 75 4.0 10.0 0.00 0.00 0.00 42 1015.8
20260903020035 67 86 4.0 14.0 0.00 0.00 0.00 42 1015.7
20260903015800 67 128 9.0 14.0 0.00 0.00 0.00 42 1015.8
20260903015305 67 120 4.0 9.0 0.00 0.00 0.00 42 1015.9
20260903014538 67 87 4.0 9.0 0.00 0.00 0.00 42 1015.8
20260903014036 67 111 4.0 12.0 0.00 0.00 0.00 42 1015.8
20260903013537 68 110 5.0 12.0 0.00 0.00 0.00 42 1015.8
20260903013036 68 109 5.0 13.0 0.00 0.00 0.00 42 1015.8
20260903013028 68 111 4.0 13.0 0.00 0.00 0.00 41 1015.8
20260903012036 68 68 4.0 15.0 0.00 0.00 0.00 40 1015.7
20260903011535 68 148 9.0 15.0 0.00 0.00 0.00 39 1015.7
20260903011036 68 123 3.0 12.0 0.00 0.00 0.00 40 1015.6
20260903010535 69 120 4.0 12.0 0.00 0.00 0.00 39 1015.7
20260903010259 69 138 6.0 12.0 0.00 0.00 0.00 39 1015.6
20260903005535 69 97 6.0 14.0 0.00 0.00 0.00 38 1015.6
20260903005035 69 137 8.0 19.0 0.00 0.00 0.00 38 1015.6
20260903004535 69 93 8.0 19.0 0.00 0.00 0.00 37 1015.5
20260903004035 69 87 10.0 18.0 0.00 0.00 0.00 37 1015.4
20260903003535 70 182 11.0 19.0 0.00 0.00 0.00 36 1015.5
20260903003033 70 117 9.0 19.0 0.00 0.00 0.00 36 1015.4
20260903002535 70 155 9.0 19.0 0.00 0.00 0.00 36 1015.4
20260903002254 70 100 11.0 21.0 0.00 0.00 0.00 35 1015.3
20260903001535 70 111 10.0 21.0 0.00 0.00 0.00 36 1015.3
20260903001034 70 104 9.0 19.0 0.00 0.00 0.00 36 1015.1
20260903000534 70 80 7.0 18.0 0.00 0.00 0.00 37 1015.3
20260903000033 70 82 9.0 18.0 0.00 0.00 0.00 37 1015.3
20260902235529 70 111 6.0 19.0 0.00 0.00 0.00 37 1015.3
20260902235035 70 78 10.0 19.0 0.00 0.00 0.00 37 1015.3
20260902234533 70 120 6.0 21.0 0.00 0.00 0.00 37 1015.3
20260902234034 71 24 7.0 21.0 0.00 0.00 0.00 37 1015.2
20260902233533 71 121 9.0 19.0 0.00 0.00 0.00 36 1015.1
20260902233035 71 125 9.0 19.0 0.00 0.00 0.00 37 1015.1
20260902232533 71 104 6.0 19.0 0.00 0.00 0.00 36 1015.2
20260902232033 71 118 8.0 15.0 0.00 0.00 0.00 36 1015.1
20260902231532 71 137 6.0 18.0 0.00 0.00 0.00 36 1015.2
20260902231033 71 190 7.0 18.0 0.00 0.00 0.00 35 1015.2
20260902230533 71 110 8.0 16.0 0.00 0.00 0.00 36 1015.2
20260902230031 71 110 8.0 16.0 0.00 0.00 0.00 36 1015.2
20260902225759 71 117 5.0 15.0 0.00 0.00 0.00 36 1015.2
20260902225032 71 87 4.0 12.0 0.00 0.00 0.00 37 1015.2
20260902224800 71 100 6.0 14.0 0.00 0.00 0.00 37 1015.3
20260902224032 72 128 7.0 16.0 0.00 0.00 0.00 37 1015.2
20260902223532 71 25 7.0 17.0 0.00 0.00 0.00 36 1015.3
20260902223029 71 75 9.0 17.0 0.00 0.00 0.00 37 1015.3
20260902222528 71 87 6.0 12.0 0.00 0.00 0.00 39 1015.5
20260902222032 71 110 5.0 12.0 0.00 0.00 0.00 39 1015.6
20260902221531 71 128 5.0 13.0 0.00 0.00 0.00 39 1015.6
20260902221033 71 104 8.0 14.0 0.00 0.00 0.00 39 1015.7
20260902220531 71 116 8.0 16.0 0.00 0.00 0.00 39 1015.8
20260902220030 71 118 6.0 16.0 0.00 0.00 0.00 40 1015.9
20260902215531 71 90 5.0 15.0 0.00 0.00 0.00 39 1015.9
20260902215031 71 151 8.0 20.0 0.00 0.00 0.00 40 1016.0
20260902214531 71 147 7.0 20.0 0.00 0.00 0.00 40 1016.0
20260902214031 71 83 8.0 19.0 0.00 0.00 0.00 41 1016.1
20260902213532 71 147 3.0 13.0 0.00 0.00 0.00 41 1016.3
20260902213031 71 89 6.0 13.0 0.00 0.00 0.00 41 1016.2
20260902212532 71 107 4.0 13.0 0.00 0.00 0.00 42 1016.2
20260902212032 71 79 4.0 12.0 0.00 0.00 0.00 42 1016.3
20260902211530 71 72 5.0 13.0 0.00 0.00 0.00 42 1016.3
20260902211030 71 138 6.0 16.0 0.00 0.00 0.00 42 1016.5
20260902210529 71 62 8.0 17.0 0.00 0.00 0.00 41 1016.4
20260902210514 72 114 7.0 17.0 0.00 0.00 0.00 41 1016.5
20260902210004 73 124 6.0 14.0 0.00 0.00 0.00 41 1016.7
20260902205622 73 127 8.0 14.0 0.00 0.00 0.00 40 1016.5
20260902204529 73 114 7.0 16.0 0.00 0.00 0.00 41 1016.5
20260902204033 73 61 9.0 16.0 0.00 0.00 0.00 42 1016.4
20260902203528 72 102 7.0 15.0 0.00 0.00 0.00 42 1016.4
20260902203029 71 79 6.0 16.0 0.00 0.00 0.00 44 1016.4
20260902202525 71 69 7.0 18.0 0.00 0.00 0.00 45 1016.7
20260902202025 71 114 12.0 18.0 0.00 0.00 0.00 44 1016.8
20260902201529 71 123 9.0 15.0 0.00 0.00 0.00 44 1016.7
20260902201028 70 107 8.0 16.0 0.00 0.00 0.00 46 1016.8
20260902200531 69 68 8.0 16.0 0.00 0.00 0.00 48 1016.8
20260902200028 69 45 3.0 16.0 0.00 0.00 0.00 47 1016.8
20260902195528 69 142 9.0 19.0 0.00 0.00 0.00 47 1017.0
20260902195028 68 138 8.0 19.0 0.00 0.00 0.00 47 1017.1
20260902194524 68 75 8.0 16.0 0.00 0.00 0.00 47 1017.2
20260902194253 68 134 9.0 16.0 0.00 0.00 0.00 48 1017.2
20260902193748 68 73 6.0 16.0 0.00 0.00 0.00 48 1017.2
20260902193025 68 157 6.0 15.0 0.00 0.00 0.00 49 1017.2
20260902192527 68 140 6.0 16.0 0.00 0.00 0.00 49 1017.3
20260902192029 68 79 7.0 16.0 0.00 0.00 0.00 49 1017.3
20260902191527 68 154 7.0 15.0 0.00 0.00 0.00 49 1017.3
20260902191027 68 78 5.0 17.0 0.00 0.00 0.00 50 1017.4
20260902190527 68 124 8.0 17.0 0.00 0.00 0.00 50 1017.4
20260902190023 68 32 7.0 13.0 0.00 0.00 0.00 49 1017.4
20260902185523 68 69 6.0 12.0 0.00 0.00 0.00 49 1017.4
20260902185023 68 127 7.0 12.0 0.00 0.00 0.00 49 1017.4
20260902184524 68 121 3.0 12.0 0.00 0.00 0.00 50 1017.3
20260902184026 68 79 4.0 13.0 0.00 0.00 0.00 50 1017.4
20260902183750 67 135 8.0 13.0 0.00 0.00 0.00 50 1017.5
20260902183026 67 96 5.0 11.0 0.00 0.00 0.00 53 1017.5
20260902182525 67 97 4.0 13.0 0.00 0.00 0.00 56 1017.5
20260902182026 67 200 7.0 13.0 0.00 0.00 0.00 55 1017.4
20260902181526 67 120 6.0 10.0 0.00 0.00 0.00 57 1017.6
20260902181026 67 110 4.0 10.0 0.00 0.00 0.00 58 1017.7
20260902180751 66 135 5.0 9.0 0.00 0.00 0.00 59 1017.7
20260902180024 65 107 2.0 7.0 0.00 0.00 0.00 63 1017.6
20260902175525 65 76 2.0 6.0 0.00 0.00 0.00 66 1017.6
20260902175026 64 111 3.0 6.0 0.00 0.00 0.00 63 1017.7
20260902174525 64 138 5.0 6.0 0.00 0.00 0.00 64 1017.6
20260902174025 64 80 2.0 4.0 0.00 0.00 0.00 66 1017.5
20260902173526 64 93 2.0 3.0 0.00 0.00 0.00 66 1017.5
20260902173025 64 123 0.0 1.0 0.00 0.00 0.00 65 1017.5
20260902172751 63 149 0.0 1.0 0.00 0.00 0.00 66 1017.4
20260902172240 64 151 1.0 1.0 0.00 0.00 0.00 66 1017.4
20260902171522 63 59 0.0 0.0 0.00 0.00 0.00 67 1017.5
20260902171025 63 144 0.0 2.0 0.00 0.00 0.00 70 1017.6
20260902170525 62 111 0.0 2.0 0.00 0.00 0.00 72 1017.7
20260902170023 61 110 0.0 2.0 0.00 0.00 0.00 74 1017.7
20260902165524 61 71 0.0 4.0 0.00 0.00 0.00 72 1017.4
20260902165024 61 83 2.0 4.0 0.00 0.00 0.00 73 1017.5
20260902164524 61 85 0.0 3.0 0.00 0.00 0.00 73 1017.6
20260902164024 62 78 0.0 3.0 0.00 0.00 0.00 72 1017.6
20260902163743 62 93 2.0 3.0 0.00 0.00 0.00 73 1017.6
20260902163025 61 56 0.0 2.0 0.00 0.00 0.00 74 1017.5
20260902162523 61 31 0.0 2.0 0.00 0.00 0.00 73 1017.4
20260902162023 61 245 0.0 0.0 0.00 0.00 0.00 71 1017.4
20260902161744 62 243 0.0 0.0 0.00 0.00 0.00 73 1017.5
20260902161626 62 243 0.0 0.0 0.00 0.00 0.00 74 1017.5
20260902160525 61 243 0.0 0.0 0.00 0.00 0.00 75 1017.6
20260902160023 60 243 0.0 1.0 0.00 0.00 0.00 77 1017.7
20260902155751 59 61 0.0 1.0 0.00 0.00 0.00 78 1017.6
20260902155022 59 61 0.0 1.0 0.00 0.00 0.00 83 1017.7
20260902154757 58 61 0.0 1.0 0.00 0.00 0.00 82 1017.7
20260902154022 58 61 0.0 0.0 0.00 0.00 0.00 82 1017.8
20260902153522 58 61 0.0 0.0 0.00 0.00 0.00 83 1017.9
20260902153244 58 61 0.0 0.0 0.00 0.00 0.00 82 1017.9
20260902152522 58 61 0.0 1.0 0.00 0.00 0.00 82 1017.9
20260902152023 58 61 0.0 3.0 0.00 0.00 0.00 83 1017.6
20260902151522 58 61 1.0 3.0 0.00 0.00 0.00 84 1017.8
20260902151023 58 199 0.0 1.0 0.00 0.00 0.00 84 1017.8
20260902150522 58 188 0.0 0.0 0.00 0.00 0.00 83 1017.9
20260902150023 57 188 0.0 0.0 0.00 0.00 0.00 85 1017.9
20260902145521 56 182 0.0 0.0 0.00 0.00 0.00 86 1017.9
20260902145242 56 245 0.0 0.0 0.00 0.00 0.00 88 1017.9
20260902144521 55 245 0.0 0.0 0.00 0.00 0.00 88 1018.0
20260902144021 55 245 0.0 0.0 0.00 0.00 0.00 89 1018.3